Weather in Ossora

Russia / Kamchatka Krai     59°15′05″N   163°04′28″E
temp.,
°C
wind,
m/s
gust,
m/s
humid.,
%
clouds,
%
prec.,
mm/h
press.,
hPa
HPBL,
m
5 august, thu
thu500:00+7nw2385100 0.4 1004136
03:00+7nw2286100 0.1 1004166
06:00+6nw338876 0.2 1004264
09:00+8nw357586 0.0 1004727
12:00+9nnw586844 0.1 10021202
15:00+11nnw7105993 0.0 10001476
18:00+10nw7136299 0.0 9971177
21:00+8wnw61276100 0.3 994848
6 august, fri
fri600:00+6w51291100 5.3 990628
03:00+6wnw4593100 1.9 988192
06:00+6nw1193100 4.9 990122
09:00+8n3593100 2.6 994347
12:00+9nne61090100 4.8 997704
15:00+9e101288100 2.7 1001937
18:00+11e8108093 3.8 1005975
21:00+9ene598796 1.2 1009309
7 august, sat
sat700:00+9ne5889100 2.3 1011294
03:00+10ene7119198 2.3 1012759
06:00+10ene81290100 4.7 1014643
09:00+10ne698898 2.0 1016718
12:00+12nne457562 2.2 1017855
15:00+14ene45625 0.4 10161042
18:00+14ese226327 0.4 1016584
21:00+11sw1177100 0.0 101632
8 august, sun
sun800:00+11wnw2270100 0.0 101541
03:00+11nnw3368100 0.0 101552
06:00+11nw3467100 0.0 1014102
09:00+13nnw366627 0.0 1014493
12:00+15nne8105725 0.0 10151561
15:00+16nne695177 0.0 10151747
18:00+15ne365618 0.0 10141061
21:00+12nnw4469100 0.0 101564
9 august, mon
mon900:00+10nnw44690 0.1 101560
03:00+8nnw47767 0.0 1014206
06:00+8nw467511 0.0 1014130
09:00+14n711519 0.0 10141706
12:00+16nne794927 0.0 10131970
15:00+15nne7954100 0.0 10131334
18:00+14n795659 0.0 10141229
21:00+12n4860100 0.0 1015368